カタログに戻る

FENGYUN 1C DEB

運用中SSO
NORAD 30118·DEBRIS·🇨🇳 China

打ち上げ May 10, 1999 から Taiyuan Satellite Launch Center

Loading…

次のパス (今後24時間)

TLE

最新Source: Space-Track

元期: Sep 14, 2026, 06:39 UTC

1 30118U 99025RX  26257.27744536  .00000092  00000-0  81133-4 0  9999
2 30118  98.8098 258.0695 0084564   7.7139   4.9214 14.05220524  7996

AllMySatでFENGYUN 1C DEBをリアルタイム追跡

Download on the App Store